Hall Beach,

4:38 AM EDT on September 25, 2017 (GMT -0400)
Hall Beach

Weather History for CYUX - October, 2012

Change the Weather History Date:

Monday, October 29, 2012

  Actual Average Record
Temperature  
Mean Temperature 4 °F -  
Max Temperature 14 °F 3 °F 30 °F (2005)
Min Temperature -7 °F -12 °F -14 °F (2001)
Degree Days  
Heating Degree Days 60    
Moisture  
Dew Point -2 °F    
Average Humidity 87    
Maximum Humidity 92    
Minimum Humidity 84    
Precipitation  
Precipitation 0.00 in 0.02 in - ()
Sea Level Pressure  
Sea Level Pressure 30.39 in    
Wind  
Wind Speed 13 mph ()    
Max Wind Speed 21 mph    
Max Gust Speed -    
Visibility 11.9 miles    
Events Fog , Snow    
Averages and records for this station are not official NWS values.
T = Trace of Precipitation, MM = Missing Value Source: Averaged Metar Reports

Daily Weather History Graph

Daily Weather History Graph

Search for Another Location

Airport or City:

Trip Planner

Search our weather history database for the weather conditions in past years. The results will help you decide how hot, cold, wet, or windy it might be!

Date:

Astronomy

Oct. 29, 2012 Rise Set
Actual Time 9:32 AM EDT 4:43 PM EDT
Civil Twilight 8:25 AM EDT 5:50 PM EDT
Nautical Twilight 7:16 AM EDT 6:58 PM EDT
Astronomical Twilight 6:10 AM EDT 8:05 PM EDT
Moon 4:07 PM EDT (10/29) 9:42 AM EDT (10/29)
Length of Visible Light 9h 24m
Length of Day
7h 11m
Full, 100% of the Moon is Illuminated
Oct 29
Full
Oct 29
Full
Nov 6
Last Quarter
Nov 13
New
Nov 20
First Quarter

Hourly Weather History & Observations

Time (EDT) Temp. Windchill Dew Point Humidity Pressure Visibility Wind Dir Wind Speed Gust Speed Precip Events Conditions
12:00 AM 14.0 °F -2.5 °F 10.4 °F 86% 30.18 in 9.0 mi WNW 17.3 mph - N/A Snow Light Snow
1:00 AM 12.2 °F -5.3 °F 8.6 °F 85% 30.19 in 9.0 mi WNW 18.4 mph - N/A Snow Light Snow
2:00 AM 12.2 °F -6.3 °F 8.6 °F 85% 30.21 in 9.0 mi WNW 20.7 mph - N/A Snow Light Snow
3:00 AM 6.8 °F -11.8 °F 5.0 °F 92% 30.25 in 9.0 mi WNW 17.3 mph - N/A Snow Light Snow
3:06 AM 6.8 °F -12.4 °F 5.0 °F 92% 30.25 in 9.0 mi WNW 18.4 mph - N/A   Scattered Clouds
4:00 AM 5.0 °F -13.6 °F 1.4 °F 85% 30.27 in 9.0 mi NW 16.1 mph - N/A   Clear
5:00 AM 1.4 °F -18.8 °F -0.4 °F 92% 30.29 in 9.0 mi WNW 17.3 mph - N/A   Clear
6:00 AM -2.2 °F -20.7 °F -5.8 °F 85% 30.31 in 9.0 mi West 12.7 mph - N/A   Clear
7:00 AM -2.2 °F -20.7 °F -5.8 °F 85% 30.32 in 9.0 mi West 12.7 mph - N/A   Clear
8:00 AM -2.2 °F -21.5 °F -4.0 °F 92% 30.33 in 15.0 mi West 13.8 mph - N/A Snow Low Drifting Snow
9:00 AM -5.8 °F -25.2 °F -9.4 °F 84% 30.35 in 15.0 mi West 12.7 mph - N/A   Clear
10:00 AM -5.8 °F -21.2 °F -9.4 °F 84% 30.37 in 15.0 mi West 8.1 mph - N/A   Scattered Clouds
10:11 AM -5.8 °F -22.4 °F -7.6 °F 92% 30.37 in 15.0 mi WSW 9.2 mph - N/A   Ice Crystals
11:00 AM -2.2 °F -18.9 °F -4.0 °F 92% 30.38 in 15.0 mi West 10.4 mph - N/A Snow Light Snow
12:00 PM 1.4 °F -16.1 °F -2.2 °F 85% 30.39 in 15.0 mi WNW 12.7 mph - N/A Snow Light Snow
12:19 PM 3.2 °F -13.1 °F -0.4 °F 85% 30.40 in 15.0 mi WNW 11.5 mph - N/A   Mostly Cloudy
1:00 PM 3.2 °F -12.2 °F -0.4 °F 85% 30.40 in 15.0 mi WNW 10.4 mph - N/A   Scattered Clouds
1:39 PM 1.4 °F -15.3 °F -2.2 °F 85% 30.42 in 15.0 mi West 11.5 mph - N/A   Ice Crystals
2:00 PM 1.4 °F -14.5 °F -2.2 °F 85% 30.43 in 15.0 mi West 10.4 mph - N/A Fog Partly Cloudy
3:00 PM 1.4 °F -14.5 °F -0.4 °F 92% 30.44 in 15.0 mi West 10.4 mph - N/A   Mostly Cloudy
4:00 PM 6.8 °F -8.6 °F 3.2 °F 85% 30.46 in 15.0 mi WNW 11.5 mph - N/A Snow Light Snow
5:00 PM 6.8 °F -10.0 °F 3.2 °F 85% 30.47 in 10.0 mi NW 13.8 mph - N/A Snow Light Snow
6:00 PM 3.2 °F -13.9 °F 1.4 °F 92% 30.48 in 15.0 mi WNW 12.7 mph - N/A Snow Light Snow
7:00 PM 1.4 °F -16.1 °F -2.2 °F 85% 30.49 in 10.0 mi NW 12.7 mph - N/A Snow Light Snow
7:25 PM -2.2 °F -18.9 °F -4.0 °F 92% 30.49 in 15.0 mi NW 10.4 mph - N/A   Partly Cloudy
8:00 PM -4.0 °F -22.1 °F -5.8 °F 92% 30.49 in 15.0 mi NW 11.5 mph - N/A   Partly Cloudy
8:39 PM -4.0 °F -22.1 °F -7.6 °F 85% 30.51 in 9.0 mi WNW 11.5 mph - N/A   Mostly Cloudy
9:00 PM -4.0 °F -22.1 °F -7.6 °F 85% 30.51 in 9.0 mi WNW 11.5 mph - N/A   Mostly Cloudy
9:01 PM -4.0 °F -23.0 °F -7.6 °F 85% 30.51 in 9.0 mi WNW 12.7 mph - N/A   Scattered Clouds
10:00 PM -5.8 °F -25.2 °F -7.6 °F 92% 30.51 in 9.0 mi WNW 12.7 mph - N/A   Clear
11:00 PM -7.6 °F -23.4 °F -11.2 °F 84% 30.52 in 7.0 mi WNW 8.1 mph - N/A   Clear